Barksdale AFB, LA

11:49 AM CDT on September 19, 2017 (GMT -0500)
Barksdale Air Force Base

Weather History for KBAD - February, 2014

Change the Weather History Date:

Wednesday, February 26, 2014

  Actual Average Record
Temperature  
Mean Temperature 38 °F -  
Max Temperature 46 °F 59 °F 78 °F (2009)
Min Temperature 30 °F 41 °F 28 °F (2002)
Degree Days  
Heating Degree Days 27    
Moisture  
Dew Point 31 °F    
Average Humidity 70    
Maximum Humidity 88    
Minimum Humidity 42    
Precipitation  
Precipitation 0.13 in - - ()
Sea Level Pressure  
Sea Level Pressure 30.15 in    
Wind  
Wind Speed 9 mph (NNE)    
Max Wind Speed 15 mph    
Max Gust Speed 24 mph    
Visibility 10 miles    
Events Rain    
Averages and records for this station are not official NWS values.
T = Trace of Precipitation, MM = Missing Value Source: NWS Daily Summary

Daily Weather History Graph

Daily Weather History Graph

Search for Another Location

Airport or City:

Trip Planner

Search our weather history database for the weather conditions in past years. The results will help you decide how hot, cold, wet, or windy it might be!

Date:

Astronomy

Feb. 26, 2014 Rise Set
Actual Time 6:45 AM CST 6:09 PM CST
Civil Twilight 6:20 AM CST 6:34 PM CST
Nautical Twilight 5:52 AM CST 7:03 PM CST
Astronomical Twilight 5:23 AM CST 7:31 PM CST
Moon 4:25 AM CST (2/26) 3:31 PM CST (2/26)
Length of Visible Light 12h 13m
Length of Day
11h 24m
Waning Crescent, 10% of the Moon is Illuminated
Feb 26
Waning Crescent
Mar 1
New
Mar 8
First Quarter
Mar 16
Full
Mar 23
Last Quarter

Hourly Weather History & Observations

Time (CST) Temp. Windchill Dew Point Humidity Pressure Visibility Wind Dir Wind Speed Gust Speed Precip Events Conditions
12:18 AM 46.4 °F 43.5 °F 42.8 °F 87% 30.08 in 10.0 mi NNE 5.8 mph - N/A   Overcast
12:58 AM 45.5 °F 42.5 °F 41.9 °F 87% 30.09 in 10.0 mi NNE 5.8 mph - N/A   Overcast
1:36 AM 44.6 °F 38.1 °F 41.0 °F 87% 30.10 in 10.0 mi NNE 13.8 mph - N/A Rain Light Rain Showers
1:46 AM 44.6 °F 39.2 °F 41.0 °F 87% 30.12 in 5.0 mi NNE 10.4 mph 19.6 mph N/A Rain Light Rain Showers
1:58 AM 44.1 °F 37.7 °F 40.5 °F 87% 30.11 in 5.0 mi NNE 12.7 mph 21.9 mph 0.03 in Rain Light Rain Showers
2:10 AM 42.8 °F 35.4 °F 39.2 °F 87% 30.07 in 6.0 mi NE 15.0 mph 24.2 mph N/A   Mostly Cloudy
2:27 AM 42.8 °F 35.8 °F 39.2 °F 87% 30.12 in 9.0 mi NNE 13.8 mph 19.6 mph N/A Rain Light Rain Showers
2:58 AM 41.0 °F 34.7 °F 37.6 °F 88% 30.12 in 10.0 mi NE 10.4 mph 24.2 mph 0.10 in   Mostly Cloudy
3:23 AM 41.0 °F 33.5 °F 35.6 °F 81% 30.12 in 10.0 mi NNE 13.8 mph 20.7 mph N/A   Overcast
3:33 AM 39.2 °F 33.6 °F 35.6 °F 87% 30.12 in 10.0 mi NNE 8.1 mph - N/A   Mostly Cloudy
3:58 AM 39.7 °F 34.3 °F 35.8 °F 86% 30.13 in 10.0 mi NNE 8.1 mph 19.6 mph 0.00 in   Overcast
4:58 AM 39.7 °F 32.7 °F 34.0 °F 80% 30.16 in 10.0 mi NNE 11.5 mph - N/A   Overcast
5:58 AM 39.2 °F 33.6 °F 32.2 °F 76% 30.18 in 10.0 mi NE 8.1 mph - N/A   Mostly Cloudy
6:18 AM 39.2 °F 33.6 °F 32.0 °F 75% 30.18 in 10.0 mi NNE 8.1 mph 20.7 mph N/A   Overcast
6:28 AM 39.2 °F 31.2 °F 32.0 °F 75% 30.18 in 10.0 mi NE 13.8 mph 18.4 mph N/A   Overcast
6:38 AM 39.2 °F 32.5 °F 32.0 °F 75% 30.18 in 10.0 mi NNE 10.4 mph 18.4 mph N/A   Overcast
6:58 AM 38.5 °F 32.1 °F 31.6 °F 76% 30.20 in 10.0 mi NE 9.2 mph 18.4 mph N/A   Overcast
7:58 AM 38.1 °F 32.3 °F 30.4 °F 74% 30.21 in 10.0 mi NE 8.1 mph - N/A   Overcast
8:58 AM 38.5 °F 31.1 °F 26.2 °F 61% 30.23 in 10.0 mi NNE 11.5 mph 21.9 mph N/A   Overcast
9:58 AM 39.9 °F 33.9 °F 27.0 °F 60% 30.23 in 10.0 mi NE 9.2 mph - N/A   Mostly Cloudy
10:58 AM 40.1 °F 32.7 °F 26.8 °F 59% 30.22 in 10.0 mi North 12.7 mph - N/A   Mostly Cloudy
11:58 AM 41.9 °F 35.4 °F 25.2 °F 52% 30.21 in 10.0 mi North 11.5 mph 20.7 mph N/A   Mostly Cloudy
12:58 PM 42.4 °F 36.1 °F 25.5 °F 51% 30.18 in 10.0 mi North 11.5 mph - N/A   Scattered Clouds
1:58 PM 43.7 °F 39.7 °F 22.6 °F 43% 30.15 in 10.0 mi North 6.9 mph - N/A   Partly Cloudy
2:58 PM 44.8 °F 40.4 °F 23.4 °F 43% 30.14 in 10.0 mi North 8.1 mph - N/A   Scattered Clouds
3:58 PM 44.2 °F 38.0 °F 22.3 °F 42% 30.12 in 10.0 mi North 12.7 mph - N/A   Scattered Clouds
4:58 PM 42.4 °F 36.1 °F 21.4 °F 43% 30.13 in 10.0 mi North 11.5 mph - N/A   Clear
5:58 PM 40.8 °F 34.1 °F 21.2 °F 46% 30.13 in 10.0 mi North 11.5 mph - N/A   Clear
6:58 PM 37.9 °F 35.5 °F 23.0 °F 55% 30.14 in 10.0 mi North 3.5 mph - N/A   Clear
7:58 PM 38.3 °F - 22.3 °F 53% 30.13 in 10.0 mi Calm Calm - N/A   Clear
8:58 PM 34.9 °F - 23.5 °F 63% 30.14 in 10.0 mi Calm Calm - N/A   Clear
9:58 PM 34.2 °F - 25.3 °F 70% 30.15 in 10.0 mi Calm Calm - N/A   Clear
10:58 PM 30.9 °F - 25.5 °F 80% 30.15 in 10.0 mi Calm Calm - N/A   Clear
11:58 PM 31.8 °F 28.5 °F 25.2 °F 76% 30.14 in 10.0 mi North 3.5 mph - N/A   Clear